Location: 相模原市立博物館
(35.5593°N, 139.3931°E)
Time: 19:49:14
(UTC+09:00)

Tiangong - Visible Passes

Search period start: 23 October 2021 00:00
Search period end: 02 November 2021 00:00
Orbit: 381 x 390 km, 41.5° (Epoch: 23 October)

Date Brightness Start Highest point End Pass type
(mag) Time Alt. Az. Time Alt. Az. Time Alt. Az.
23 Oct 2.5 17:29:53 10° WNW 17:32:46 30° N 17:35:38 10° NE visible
23 Oct 4.1 19:07:13 10° NW 19:07:56 15° NW 19:07:56 15° NW visible
24 Oct 2.5 18:07:48 10° WNW 18:10:36 27° N 18:11:22 24° NNE visible
25 Oct 3.1 18:45:20 10° WNW 18:47:02 25° NW 18:47:02 25° NW visible
26 Oct 2.2 17:45:58 10° NW 17:48:52 31° N 17:50:30 19° ENE visible
26 Oct 4.7 19:22:44 10° WNW 19:22:44 10° WNW 19:22:44 10° WNW visible
27 Oct 1.4 18:23:21 10° WNW 18:26:16 57° N 18:26:16 57° N visible
28 Oct 1.8 17:23:59 10° WNW 17:27:02 40° NNE 17:29:51 11° E visible
28 Oct 3.8 19:00:52 10° WNW 19:02:06 20° W 19:02:06 20° W visible
29 Oct 1.1 18:01:20 10° WNW 18:04:32 78° SSW 18:05:48 33° SE visible
30 Oct 3.3 18:39:13 10° W 18:41:44 21° SW 18:41:53 21° SSW visible
31 Oct 2.3 17:39:22 10° WNW 17:42:24 40° SSW 17:45:24 10° SE visible
01 Nov 4.2 18:18:24 10° WSW 18:19:25 11° SW 18:20:26 10° SSW visible
